Liberia, Costa Rica

12:29 AM CST on March 29, 2017 (GMT -0600)
Daniel Oduber Quiros International

Weather History for MRLB - April, 2014

Change the Weather History Date:

Monday, April 21, 2014

  Actual Average Record
Temperature  
Mean Temperature 86 °F -  
Max Temperature 97 °F 91 °F 99 °F (2016)
Min Temperature 75 °F 76 °F 69 °F (2002)
Cooling Degree Days 21    
Growing Degree Days 36 (Base 50)    
Moisture  
Dew Point 65 °F    
Average Humidity 42    
Maximum Humidity 69    
Minimum Humidity 27    
Precipitation  
Precipitation 0.00 in - - ()
Sea Level Pressure  
Sea Level Pressure 29.81 in    
Wind  
Wind Speed 10 mph ()    
Max Wind Speed 22 mph    
Max Gust Speed -    
Visibility 7.9 miles    
Events      
Averages and records for this station are not official NWS values.
T = Trace of Precipitation, MM = Missing Value Source: Averaged Metar Reports

Daily Weather History Graph

Daily Weather History Graph

Search for Another Location

Airport or City:

Trip Planner

Search our weather history database for the weather conditions in past years. The results will help you decide how hot, cold, wet, or windy it might be!

Date:

Astronomy

Apr. 21, 2014 Rise Set
Actual Time 5:28 AM CST 5:53 PM CST
Civil Twilight 5:06 AM CST 6:15 PM CST
Nautical Twilight 4:41 AM CST 6:40 PM CST
Astronomical Twilight 4:16 AM CST 7:05 PM CST
Moon No Moon Rise 11:07 AM CST (4/21)
Length of Visible Light 13h 08m
Length of Day
12h 25m
Waning Gibbous, 57% of the Moon is Illuminated
Apr 21
Waning Gibbous
Apr 22
Last Quarter
Apr 29
New
May 6
First Quarter
May 14
Full

Hourly Weather History & Observations

Time (CST) Temp. Heat Index Dew Point Humidity Pressure Visibility Wind Dir Wind Speed Gust Speed Precip Events Conditions
6:00 AM 78 °F - 67 °F 61% 29.85 in 12 mi West 3.5 mph - -   Scattered Clouds
6:00 AM 77.0 °F - 66.2 °F 69% 29.84 in 6.2 mi West 3.5 mph - N/A   Scattered Clouds
7:00 AM 82.4 °F 85.4 °F 68.0 °F 62% 29.85 in 6.2 mi South 5.8 mph - N/A   Partly Cloudy
8:00 AM 86.0 °F 89.4 °F 68.0 °F 55% 29.86 in - WNW 4.6 mph - N/A   Clear
9:00 AM 91 °F - 65 °F 32% 29.86 in 12 mi East 6.9 mph - -   Clear
9:00 AM 91.4 °F 93.2 °F 64.4 °F 41% 29.85 in - East 6.9 mph - N/A   Clear
10:00 AM 91.4 °F 93.2 °F 64.4 °F 41% 29.83 in - East 17.3 mph - N/A   Clear
11:00 AM 93.2 °F 94.1 °F 62.6 °F 36% 29.82 in 6.2 mi East 18.4 mph - N/A   Partly Cloudy
12:00 PM 94 °F - 64 °F 27% 29.82 in 12 mi East 21.9 mph - -   Scattered Clouds
12:00 PM 95.0 °F 97.0 °F 64.4 °F 36% 29.81 in 6.2 mi East 21.9 mph - N/A   Partly Cloudy
1:00 PM 95.0 °F 96.0 °F 62.6 °F 34% 29.80 in 6.2 mi East 17.3 mph - N/A   Partly Cloudy
2:00 PM 95.0 °F 97.0 °F 64.4 °F 36% 29.78 in 6.2 mi ENE 17.3 mph - N/A   Scattered Clouds
3:00 PM 94 °F - 66 °F 30% 29.79 in 12 mi ENE 18.4 mph - -   Partly Cloudy
3:00 PM 95.0 °F 98.5 °F 66.2 °F 39% 29.76 in 6.2 mi ENE 18.4 mph - N/A   Scattered Clouds
4:00 PM 93.2 °F 96.2 °F 66.2 °F 41% 29.76 in 6.2 mi ENE 19.6 mph - N/A   Scattered Clouds
5:00 PM 91.4 °F 93.2 °F 64.4 °F 41% 29.77 in 6.2 mi NE 20.7 mph - N/A   Mostly Cloudy
6:00 PM 89 °F - 65 °F 34% 29.81 in 12 mi ENE 13.8 mph - -   Overcast
6:00 PM 89.6 °F 91.1 °F 64.4 °F 43% 29.78 in 6.2 mi ENE 13.8 mph - N/A   Mostly Cloudy
7:00 PM 87.8 °F 89.4 °F 64.4 °F 46% 29.80 in 6.2 mi East 12.7 mph - N/A   Overcast
8:00 PM 86.0 °F 86.6 °F 62.6 °F 45% 29.81 in 6.2 mi East 15.0 mph - N/A   Overcast